Regional Weather Roundup
Issued by NWS Jackson, KY

Home | Current Version | Previous Version | Graphics & Text | Print | Product List | Glossary On
Versions: 1 2 3 4 5 6 7 8 9 10 11 12 13 14 15 16 17 18 19 20 21 22 23 24 25 26 27 28 29 30 31 32 33 34 35 36 37 38 39 40 41 42 43 44 45 46 47 48 49 50
000
ASUS43 KJKL 050110
RWRJKL

EAST KENTUCKY HOURLY WEATHER ROUNDUP
NATIONAL WEATHER SERVICE JACKSON KY
800 PM EST WED MAR 04 2015

NOTE: "FAIR" INDICATES FEW OR NO CLOUDS BELOW 12,000 FEET WITH
NO SIGNIFICANT WEATHER AND/OR OBSTRUCTIONS TO VISIBILITY.

* THESE REPORTS ARE NOT UNDER NWS QUALITY CONTROL AND MAY NOT
  REPORT WEATHER SUCH AS PRECIPITATION AND FOG.

KYZ079-080-083-085-087-088-110-112-115-119-120-050200
...EASTERN KENTUCKY...

CITY           SKY/WX    TMP DP  RH WIND       PRES   REMARKS
JACKSON        RAIN      36  34  92 VRB6      30.03R FOG     WCI  31
LONDON         LGT RAIN  38  34  85 N10       30.04R WCI  31
SOMERSET*      RAIN      34  34 100 N9        30.08R WCI  26
MONTICELLO*    LGT SNOW  37  35  92 N10       30.09R FOG     WCI  30
MIDDLESBORO*   RAIN      45  43  93 NW9       29.96R
HAZARD APT*    RAIN      39  39 100 NW9       30.02R WCI  33
PIKEVILLE APT* RAIN      37  37 100 N10       29.99R WCI  30
BIG SANDY*     RAIN      37  37  98 N10G18    30.00R WCI  30
MOREHEAD APT*  MIX PCPN  32  32 100 N8        30.08R WCI  25
$$

KYZ035-036-041-042-044-050-067-078-099-050200
...CENTRAL KENTUCKY...

CITY           SKY/WX    TMP DP  RH WIND       PRES   REMARKS
MT STERLING*   LGT SNOW  32  32 100 N8        30.09R WCI  25
FLEMING/MASON* SNOW      30  30 100 N8        30.10R VSB 1/2 WCI  23
DANVILLE*      LGT SNOW  32  32 100 N10       30.10R WCI  24
RICHMOND*      CLOUDY    34  32  93 N7        30.08R WCI  28
LEXINGTON      LGT SNOW  31  30  96 N10       30.10R VSB 3/4 WCI  22
FRANKFORT      LGT SNOW  29  27  92 NW12      30.11R VSB 3/4 WCI  19
$$

KYZ091>093-OHZ055-061-077-WVZ005-015-034-035-042-050200
...SOUTHERN OHIO/WEST VIRGINIA...

CITY           SKY/WX    TMP DP  RH WIND       PRES   REMARKS
COVINGTON      LGT SNOW  27  24  89 NW15      30.12R VSB 3/4 WCI  15
COLUMBUS       LGT SNOW  29  27  92 N7        30.06F FOG     WCI  22
DAYTON         LGT SNOW  28  22  78 NW17      30.13R WCI  16
WILMINGTON     LGT SNOW  27  24  89 N15       30.09R VSB 3/4 WCI  15
HUNTINGTON     LGT SNOW  32  32 100 N8        30.05R VSB 3/4 WCI  25
CHARLESTON     SLEET     37  34  89 NW13      30.02R FOG     WCI  29
PINEVILLE*     MIX PCPN  42  42 100 MISG      29.98R
BECKLEY        RAIN      38  38 100 N9        29.93R FOG     WCI  31
BLUEFIELD      LGT RAIN  48  44  86 CALM      29.90S FOG
$$

VAZ002-007-008-TNZ017-027-036-066-071-050200
...SOUTHWEST VIRGINIA/EAST TENNESSEE...

CITY           SKY/WX    TMP DP  RH WIND       PRES   REMARKS
WISE*          HVY RAIN  43  43 100 N10       29.94R
JONESVILLE*    LGT RAIN  43  43 100 CALM      29.90F VSB 3/4
ABINGDON*      CLOUDY    53  51  94 CALM      29.88R
BRISTOL        CLOUDY    54  49  83 N6        29.86R
KNOXVILLE      LGT RAIN  53  50  89 N13       29.86R
OAK RIDGE      LGT RAIN  52  49  89 VRB5      29.89R
CROSSVILLE     HVY RAIN  40  37  89 N13       29.99R FOG     WCI  32
NASHVILLE      LGT RAIN  34  31  88 N15       30.09R WCI  24
$$

...KEY TO REMARKS...
VSB - VISIBILITY IN MILES
WCI - WIND CHILL INDEX
HX  - HEAT INDEX

$$


USA.gov is the U.S. government's official web portal to all federal, state and local government web resources and services.